#timestamp,LO_Frequency,Hit,StdDev 
1511596815.2,286046998.9,N
1511596835.1,286046998.4,N
1511596836.0,286046998.4,N
1511596855.8,286046998.5,N
1511596875.6,286047002.8,N
1511596895.5,286047002.5,N
1511596915.3,286047001.4,N
1511596935.1,286047001.6,N
1511596955.9,286047008.6,N
1511596975.7,286047007.1,N
1511596995.5,286047003.2,N
1511597015.4,286047006.2,N
1511597035.2,286047008.9,N
1511597055.0,286047008.2,N
1511597055.9,286047008.2,N
1511597075.8,286047008.5,N
1511597095.6,286047011.0,N
1511597115.4,286047009.6,N
1511597135.2,286047007.3,N
1511597155.1,286047010.5,N
1511597156.0,286047010.5,N
1511597175.8,286047011.9,N
1511597195.6,286047011.9,N
1511597215.5,286047012.4,N
1511597235.3,286047010.2,N
1511597255.1,286047011.5,N
1511597275.9,286047015.2,Y
1511597295.7,286047008.7,P
1511597315.5,286047007.1,P
1511597335.4,286047005.7,P
1511597355.2,286047003.8,Y
1511597375.0,286046998.4,P
1511597375.9,286046998.4,N
1511597395.8,286047001.5,N
1511597415.6,286047002.7,N
1511597435.4,286047001.5,N
1511597455.3,286047000.4,N
1511597475.1,286047002.0,N
1511597476.0,286047002.0,N
1511597495.8,286047003.9,N
1511597515.7,286047004.2,N
1511597535.5,286047005.8,N
1511597555.3,286047003.8,N
1511597575.2,286047005.5,N
1511597595.9,286047003.0,N
1511597615.7,286047004.0,N
1511597635.5,286047003.8,N
1511597655.4,286047003.6,N
1511597675.2,286047004.1,N
1511597695.0,286047005.8,N
1511597695.9,286047005.8,N
1511597715.8,286047005.8,N
1511597735.6,286047003.4,N
1511597755.4,286047003.2,N
1511597775.3,286047000.0,N
1511597795.1,286047004.1,N
1511597796.0,286047004.1,N
1511597815.8,286047005.3,N
1511597835.7,286047005.7,N
1511597855.5,286047008.0,Y
1511597875.3,286047004.7,P
1511597895.2,286047008.0,P
1511597915.9,286047010.3,P
1511597935.7,286047013.6,Y
1511597955.6,286047004.9,P
1511597975.4,286047004.3,P
1511597995.2,286047002.2,N
1511598015.1,286046999.8,N
1511598016.0,286046999.8,N
1511598035.8,286047001.2,N
1511598055.6,286047001.9,N
1511598075.4,286047004.0,N
1511598095.3,286047003.5,N
1511598115.1,286047000.9,N
1511598135.8,286046997.1,N
1511598155.7,286046995.4,N
1511598175.5,286046995.1,N
1511598195.3,286046993.1,N
1511598215.2,286046992.8,N
1511598235.9,286046989.1,N
1511598255.7,286046990.9,N
1511598275.6,286046990.7,N
1511598295.4,286046987.1,N
1511598315.2,286046986.2,N
1511598335.0,286046984.2,N
1511598336.0,286046984.2,N
1511598355.8,286046986.4,N
1511598375.6,286046986.2,N
1511598395.4,286046984.1,N
1511598415.3,286046986.7,N
1511598435.1,286046984.4,N
1511598455.8,286046986.5,N
1511598475.7,286046988.1,N
1511598495.5,286046988.0,N
1511598515.3,286046986.8,N
1511598535.2,286046984.1,N
1511598555.9,286046986.4,N
1511598575.7,286046988.2,N
1511598595.6,286046988.4,N
1511598615.4,286046989.6,N
1511598635.2,286046988.7,N
1511598655.0,286046990.0,N
1511598656.0,286046990.0,N
1511598675.8,286046992.3,N
1511598695.6,286046992.2,N
1511598715.4,286046992.3,N
1511598735.3,286046991.4,N
1511598755.1,286046990.4,Y
1511598775.8,286047005.4,P
1511598795.7,286047006.5,N
1511598815.5,286047004.7,N
1511598835.3,286047005.5,N
1511598855.2,286047008.9,N
1511598875.9,286047009.1,N
1511598895.7,286047010.8,N
1511598915.6,286047006.7,N
1511598935.4,286047007.9,N
1511598955.2,286047006.9,N
1511598975.1,286047009.1,N
1511598976.0,286047009.1,N
1511598995.8,286047006.4,N
1511599015.6,286047003.1,N
1511599035.4,286047004.7,N
1511599055.3,286047007.0,N
1511599075.1,286047005.8,N
1511599095.8,286047004.5,N
1511599115.7,286047003.3,N
1511599135.5,286047004.6,N
1511599155.3,286047001.9,N
1511599175.2,286047002.3,N
1511599195.9,286047001.7,N
1511599215.7,286047002.5,N
1511599235.6,286047002.9,N
1511599255.4,286047007.6,N
1511599275.2,286047002.9,N
1511599295.0,286047007.3,N
1511599296.0,286047007.3,N
1511599315.8,286047004.7,N
1511599335.6,286047002.9,N
1511599355.4,286047006.7,N
1511599375.3,286047006.4,N
1511599395.1,286047006.8,N
1511599415.8,286047006.4,N
1511599435.7,286047011.6,Y
1511599455.5,286047008.1,P
1511599475.3,286047011.6,P
1511599495.2,286047013.2,P
1511599515.9,286047013.1,Y
1511599535.7,286047001.8,P
1511599555.6,286047000.2,N
1511599575.4,286047000.5,N
1511599595.2,286047000.8,N
1511599615.1,286046998.5,N
1511599616.0,286046998.5,N
1511599635.8,286046997.5,N
1511599655.6,286046992.2,N
1511599675.5,286046989.0,N
1511599695.3,286046988.9,N
1511599715.1,286046990.1,N
1511599735.8,286046993.2,N
1511599755.7,286046993.1,N
1511599775.5,286046993.2,N
1511599795.3,286046992.5,N
1511599815.2,286046990.8,N
1511599835.0,286046994.6,N
1511599835.9,286046994.6,N
1511599855.7,286046995.8,N
1511599875.6,286046995.0,N
1511599895.4,286046996.6,N
1511599915.2,286046996.5,N
1511599935.1,286047004.4,N
1511599936.0,286047004.4,N
1511599955.8,286046999.8,N
1511599975.6,286047002.0,N
1511599995.5,286047001.1,N
1511600015.3,286047003.7,N
1511600035.1,286046998.1,N
1511600055.8,286047002.8,N
1511600075.7,286047003.8,N
1511600095.5,286046999.7,N
1511600115.3,286046996.9,N
1511600135.2,286047004.4,N
1511600155.9,286047002.6,N
1511600175.7,286047003.9,N
1511600195.6,286047003.4,N
1511600215.4,286047006.4,N
1511600235.2,286047003.4,N
1511600255.1,286046999.7,N
1511600256.0,286046999.7,N
1511600275.8,286047000.9,N
1511600295.6,286047000.8,N
1511600315.5,286046996.9,N
1511600335.3,286046993.4,N
1511600355.1,286046995.2,N
1511600375.9,286046993.7,N
1511600395.7,286046994.8,N
